Brangus — WDB4516 — position and weather

sailwx.info

Track history (hours):
 
Tides and Currents Weather Stations Pressure Air Temp Water Temp Dewpoint Dewpoint Depression Visibility Wind Speed Wind Dir Waves Ship Positions

Brangus

Owner: Great Lakes Dredge & Dock Company, Oak Brook, IL. More information available from US FCC via Universal Licensing System and Coast Guard Vessel Documentation Center.

Last reported at 2015-Feb-25 22:14 UTC. Time now 2015-Feb-28 15:54 UTC.
Position N 32°14' W 080°45'.

Length 46 m; draft 2.3 m.

Type: Tug. MMSI: 366899270.

Date/timePositionNaut miles runAvg speedWind from/ knotsBaromVisibWave heightAir tempDewpointWater temp
2015-Feb-25 22:14N 32°14' W 080°45'22 4.7
2015-Feb-25 17:33N 31°59' W 081°03'8 5.3
2015-Feb-25 16:08N 31°51' W 081°05'3 5.3
2015-Feb-25 15:32N 31°51' W 081°09'221 4.8
2015-Feb-23 17:29N 28°12' W 080°39'73 6.0
2015-Feb-23 05:14N 27°04' W 080°07'5 6.6
2015-Feb-23 04:33N 26°60' W 080°05'6 5.6
2015-Feb-23 03:34N 26°54' W 080°05'6 4.4
2015-Feb-23 02:05N 26°48' W 080°03'  
Track history (hours):
 
Tides and Currents Weather Stations Pressure Air Temp Water Temp Dewpoint Dewpoint Depression Visibility Wind Speed Wind Dir Waves Ship Positions

Brangus

Owner: Great Lakes Dredge & Dock Company, Oak Brook, IL. More information available from US FCC via Universal Licensing System and Coast Guard Vessel Documentation Center.

Last reported at 2015-Feb-25 22:14 UTC. Time now 2015-Feb-28 15:54 UTC.
Position N 32°14' W 080°45'.

Length 46 m; draft 2.3 m.

Type: Tug. MMSI: 366899270.

Date/timePositionNaut miles runAvg speedWind from/ knotsBaromVisibWave heightAir tempDewpointWater temp
2015-Feb-25 22:14N 32°14' W 080°45'22 4.7
2015-Feb-25 17:33N 31°59' W 081°03'8 5.3
2015-Feb-25 16:08N 31°51' W 081°05'3 5.3
2015-Feb-25 15:32N 31°51' W 081°09'221 4.8
2015-Feb-23 17:29N 28°12' W 080°39'73 6.0
2015-Feb-23 05:14N 27°04' W 080°07'5 6.6
2015-Feb-23 04:33N 26°60' W 080°05'6 5.6
2015-Feb-23 03:34N 26°54' W 080°05'6 4.4
2015-Feb-23 02:05N 26°48' W 080°03'  

Dump ship's entire track history